Time,TemperatureF,DewpointF,PressureIn,WindDirection,WindDirectionDegrees,WindSpeedMPH,WindSpeedGustMPH,Humidity,HourlyPrecipIn,Conditions,Clouds,dailyrainin,SolarRadiationWatts/m^2,SoftwareType,DateUTC
2013-12-01 00:42:00,50.0,47.0,-100.00,NE,53,0.0,0.0,90,0.00,,,0.00,0.000000,,2013-12-01 06:42:00,
2013-12-01 00:52:00,50.0,47.0,-100.00,NE,53,0.0,0.0,90,0.00,,,0.00,0.000000,,2013-12-01 06:52:00,
2013-12-01 01:01:00,50.0,47.0,-100.00,NE,53,0.0,0.0,90,0.00,,,0.00,0.000000,,2013-12-01 07:01:00,
2013-12-01 01:02:00,51.0,48.0,-100.00,East,89,2.0,2.0,88,0.00,,,0.00,0.000000,,2013-12-01 07:02:00,
2013-12-01 01:42:00,51.0,48.0,-100.00,East,89,2.0,2.0,88,0.00,,,0.00,0.000000,,2013-12-01 07:42:00,
2013-12-01 01:52:00,51.0,48.0,-100.00,East,89,2.0,2.0,88,0.00,,,0.00,0.000000,,2013-12-01 07:52:00,
2013-12-01 02:02:00,51.0,47.0,-100.00,East,83,2.0,2.0,87,0.00,,,0.00,0.000000,,2013-12-01 08:02:00,
2013-12-01 02:42:00,51.0,47.0,-100.00,East,83,2.0,2.0,87,0.00,,,0.00,0.000000,,2013-12-01 08:42:00,
2013-12-01 02:52:00,51.0,47.0,-100.00,East,83,2.0,2.0,87,0.00,,,0.00,0.000000,,2013-12-01 08:52:00,
2013-12-01 03:02:00,51.0,48.0,-100.00,East,86,2.0,3.0,88,0.00,,,0.00,0.000000,,2013-12-01 09:02:00,
2013-12-01 03:43:00,51.0,48.0,-100.00,East,86,2.0,3.0,88,0.00,,,0.00,0.000000,,2013-12-01 09:43:00,
2013-12-01 03:54:00,51.0,48.0,-100.00,East,86,2.0,3.0,88,0.00,,,0.00,0.000000,,2013-12-01 09:54:00,
2013-12-01 04:02:00,51.0,48.0,-100.00,ENE,76,2.0,3.0,88,0.00,,,0.00,0.000000,,2013-12-01 10:02:00,
2013-12-01 04:42:00,51.0,48.0,-100.00,ENE,76,2.0,3.0,88,0.00,,,0.00,0.000000,,2013-12-01 10:42:00,
2013-12-01 04:53:00,51.0,48.0,-100.00,ENE,76,2.0,3.0,88,0.00,,,0.00,0.000000,,2013-12-01 10:53:00,
2013-12-01 05:02:00,50.0,47.0,-100.00,ENE,60,2.0,4.0,89,0.00,,,0.00,0.000000,,2013-12-01 11:02:00,
2013-12-01 05:22:00,50.0,47.0,-100.00,ENE,60,2.0,4.0,89,0.00,,,0.00,0.000000,,2013-12-01 11:22:00,
2013-12-01 05:33:00,50.0,47.0,-100.00,ENE,60,2.0,4.0,89,0.00,,,0.00,0.000000,,2013-12-01 11:33:00,
2013-12-01 05:42:00,50.0,47.0,-100.00,ENE,60,2.0,4.0,89,0.00,,,0.00,0.000000,,2013-12-01 11:42:00,
2013-12-01 05:52:00,50.0,47.0,-100.00,ENE,60,2.0,4.0,89,0.00,,,0.00,0.000000,,2013-12-01 11:52:00,
2013-12-01 06:42:00,50.0,47.0,-100.00,ESE,107,2.0,4.0,89,0.00,,,0.00,0.000000,,2013-12-01 12:42:00,
2013-12-01 06:52:00,50.0,47.0,-100.00,ESE,107,2.0,4.0,89,0.00,,,0.00,0.000000,,2013-12-01 12:52:00,
2013-12-01 07:01:00,50.0,47.0,-100.00,ESE,107,2.0,4.0,89,0.00,,,0.00,0.000000,,2013-12-01 13:01:00,
2013-12-01 07:02:00,50.0,47.0,-100.00,ENE,70,3.0,5.0,90,0.00,,,0.00,0.000000,,2013-12-01 13:02:00,
2013-12-01 07:42:00,50.0,47.0,-100.00,ENE,70,3.0,5.0,90,0.00,,,0.00,0.000000,,2013-12-01 13:42:00,
2013-12-01 07:52:00,50.0,47.0,-100.00,ENE,70,3.0,5.0,90,0.00,,,0.00,0.000000,,2013-12-01 13:52:00,
2013-12-01 08:42:00,51.0,48.0,-100.00,ENE,74,3.0,6.0,88,0.00,,,0.00,12.000000,,2013-12-01 14:42:00,
2013-12-01 08:52:00,51.0,48.0,-100.00,ENE,74,3.0,6.0,88,0.00,,,0.00,12.000000,,2013-12-01 14:52:00,
2013-12-01 09:01:00,51.0,48.0,-100.00,ENE,74,3.0,6.0,88,0.00,,,0.00,12.000000,,2013-12-01 15:01:00,
2013-12-01 09:02:00,53.0,49.0,-100.00,East,92,3.0,6.0,86,0.00,,,0.00,60.000000,,2013-12-01 15:02:00,
2013-12-01 09:43:00,53.0,49.0,-100.00,East,92,3.0,6.0,86,0.00,,,0.00,60.000000,,2013-12-01 15:43:00,
2013-12-01 09:53:00,53.0,49.0,-100.00,East,92,3.0,6.0,86,0.00,,,0.00,60.000000,,2013-12-01 15:53:00,
2013-12-01 10:02:00,56.0,50.0,-100.00,East,82,2.0,5.0,81,0.00,,,0.00,116.000000,,2013-12-01 16:02:00,
2013-12-01 10:43:00,56.0,50.0,-100.00,East,82,2.0,5.0,81,0.00,,,0.00,116.000000,,2013-12-01 16:43:00,
2013-12-01 10:52:00,56.0,50.0,-100.00,East,82,2.0,5.0,81,0.00,,,0.00,116.000000,,2013-12-01 16:52:00,
2013-12-01 11:02:00,58.0,52.0,-100.00,SW,223,3.0,6.0,79,0.00,,,0.00,191.000000,,2013-12-01 17:02:00,
2013-12-01 11:42:00,58.0,52.0,-100.00,SW,223,3.0,6.0,79,0.00,,,0.00,191.000000,,2013-12-01 17:42:00,
2013-12-01 11:52:00,58.0,52.0,-100.00,SW,223,3.0,6.0,79,0.00,,,0.00,191.000000,,2013-12-01 17:52:00,
2013-12-01 12:02:00,61.0,53.0,-100.00,WNW,298,2.0,6.0,75,0.00,,,0.00,245.000000,,2013-12-01 18:02:00,
2013-12-01 12:42:00,61.0,53.0,-100.00,WNW,298,2.0,6.0,75,0.00,,,0.00,245.000000,,2013-12-01 18:42:00,
2013-12-01 12:52:00,61.0,53.0,-100.00,WNW,298,2.0,6.0,75,0.00,,,0.00,245.000000,,2013-12-01 18:52:00,
2013-12-01 13:42:00,62.0,54.0,-100.00,SSW,207,2.0,6.0,75,0.00,,,0.00,191.000000,,2013-12-01 19:42:00,
2013-12-01 13:52:00,62.0,54.0,-100.00,SSW,207,2.0,6.0,75,0.00,,,0.00,191.000000,,2013-12-01 19:52:00,
2013-12-01 14:01:00,62.0,54.0,-100.00,SSW,207,2.0,6.0,75,0.00,,,0.00,191.000000,,2013-12-01 20:01:00,
2013-12-01 14:02:00,62.0,54.0,-100.00,East,79,3.0,6.0,76,0.00,,,0.00,137.000000,,2013-12-01 20:02:00,
2013-12-01 14:42:00,62.0,54.0,-100.00,East,79,3.0,6.0,76,0.00,,,0.00,137.000000,,2013-12-01 20:42:00,
2013-12-01 14:52:00,62.0,54.0,-100.00,East,79,3.0,6.0,76,0.00,,,0.00,137.000000,,2013-12-01 20:52:00,
2013-12-01 15:02:00,62.0,55.0,-100.00,ESE,122,2.0,4.0,78,0.00,,,0.00,65.000000,,2013-12-01 21:02:00,
2013-12-01 15:43:00,62.0,55.0,-100.00,ESE,122,2.0,4.0,78,0.00,,,0.00,65.000000,,2013-12-01 21:43:00,
2013-12-01 15:53:00,62.0,55.0,-100.00,ESE,122,2.0,4.0,78,0.00,,,0.00,65.000000,,2013-12-01 21:53:00,
2013-12-01 16:02:00,61.0,55.0,-100.00,ESE,110,3.0,7.0,81,0.00,,,0.00,65.000000,,2013-12-01 22:02:00,
2013-12-01 16:42:00,61.0,55.0,-100.00,ESE,110,3.0,7.0,81,0.00,,,0.00,65.000000,,2013-12-01 22:42:00,
2013-12-01 16:52:00,61.0,55.0,-100.00,ESE,110,3.0,7.0,81,0.00,,,0.00,65.000000,,2013-12-01 22:52:00,
2013-12-01 17:02:00,60.0,56.0,-100.00,NE,54,2.0,5.0,87,0.00,,,0.00,35.000000,,2013-12-01 23:02:00,
2013-12-01 17:42:00,60.0,56.0,-100.00,NE,54,2.0,5.0,87,0.00,,,0.00,35.000000,,2013-12-01 23:42:00,
2013-12-01 17:52:00,60.0,56.0,-100.00,NE,54,2.0,5.0,87,0.00,,,0.00,35.000000,,2013-12-01 23:52:00,
2013-12-01 18:22:00,58.0,55.0,-100.00,East,84,2.0,4.0,90,0.00,,,0.00,0.000000,,2013-12-02 00:22:00,
2013-12-01 18:32:00,58.0,55.0,-100.00,East,84,2.0,4.0,90,0.00,,,0.00,0.000000,,2013-12-02 00:32:00,
2013-12-01 18:42:00,58.0,55.0,-100.00,East,84,2.0,4.0,90,0.00,,,0.00,0.000000,,2013-12-02 00:42:00,
2013-12-01 18:52:00,58.0,55.0,-100.00,East,84,2.0,4.0,90,0.00,,,0.00,0.000000,,2013-12-02 00:52:00,
2013-12-01 19:01:00,58.0,55.0,-100.00,East,84,2.0,4.0,90,0.00,,,0.00,0.000000,,2013-12-02 01:01:00,
2013-12-01 19:42:00,57.0,54.0,-100.00,ENE,74,3.0,4.0,91,0.00,,,0.00,0.000000,,2013-12-02 01:42:00,
2013-12-01 19:52:00,57.0,54.0,-100.00,ENE,74,3.0,4.0,91,0.00,,,0.00,0.000000,,2013-12-02 01:52:00,
2013-12-01 20:01:00,57.0,54.0,-100.00,ENE,74,3.0,4.0,91,0.00,,,0.00,0.000000,,2013-12-02 02:01:00,
2013-12-01 20:02:00,57.0,55.0,-100.00,East,96,3.0,5.0,92,0.00,,,0.00,0.000000,,2013-12-02 02:02:00,
2013-12-01 20:22:00,57.0,55.0,-100.00,East,96,3.0,5.0,92,0.00,,,0.00,0.000000,,2013-12-02 02:22:00,
2013-12-01 20:32:00,57.0,55.0,-100.00,East,96,3.0,5.0,92,0.00,,,0.00,0.000000,,2013-12-02 02:32:00,
2013-12-01 20:42:00,57.0,55.0,-100.00,East,96,3.0,5.0,92,0.00,,,0.00,0.000000,,2013-12-02 02:42:00,
2013-12-01 20:52:00,57.0,55.0,-100.00,East,96,3.0,5.0,92,0.00,,,0.00,0.000000,,2013-12-02 02:52:00,
2013-12-01 21:02:00,56.0,54.0,-100.00,ESE,111,2.0,4.0,93,0.00,,,0.00,0.000000,,2013-12-02 03:02:00,
2013-12-01 21:43:00,56.0,54.0,-100.00,ESE,111,2.0,4.0,93,0.00,,,0.00,0.000000,,2013-12-02 03:43:00,
2013-12-01 21:54:00,56.0,54.0,-100.00,ESE,111,2.0,4.0,93,0.00,,,0.00,0.000000,,2013-12-02 03:54:00,
2013-12-01 22:02:00,56.0,54.0,-100.00,East,80,2.0,3.0,94,0.00,,,0.00,0.000000,,2013-12-02 04:02:00,
2013-12-01 22:43:00,56.0,54.0,-100.00,East,80,2.0,3.0,94,0.00,,,0.00,0.000000,,2013-12-02 04:43:00,
2013-12-01 22:53:00,56.0,54.0,-100.00,East,80,2.0,3.0,94,0.00,,,0.00,0.000000,,2013-12-02 04:53:00,
2013-12-01 23:02:00,55.0,54.0,-100.00,East,79,1.0,3.0,95,0.00,,,0.00,0.000000,,2013-12-02 05:02:00,
2013-12-01 23:43:00,55.0,54.0,-100.00,East,79,1.0,3.0,95,0.00,,,0.00,0.000000,,2013-12-02 05:43:00,
2013-12-01 23:53:00,55.0,54.0,-100.00,East,79,1.0,3.0,95,0.00,,,0.00,0.000000,,2013-12-02 05:53:00,